Regional Weather Roundup
Issued by NWS Boston, MA

Current Version | Previous Version | Text Only | Print | Product List | Glossary Off
Versions: 1 2 3 4 5 6 7 8 9 10 11 12 13 14 15 16 17 18 19 20 21 22 23 24 25 26 27 28 29
000 ASUS41 KBOX 270710 RWRBOX REGIONAL WEATHER ROUNDUP NATIONAL WEATHER SERVICE TAUNTON MA 300 AM EDT MON MAR 27 2017 NOTE: "FAIR" INDICATES FEW OR NO CLOUDS BELOW 12,000 FEET WITH NO SIGNIFICANT WEATHER AND/OR OBSTRUCTIONS TO VISIBILITY. MAZALL-270800- EASTERN MASSACHUSETTS CITY SKY/WX TMP DP RH WIND PRES REMARKS BOSTON CLOUDY 37 32 82 E10 30.34F WCI 30 BEVERLY CLOUDY 37 31 78 SE7 30.33F WCI 32 LAWRENCE CLOUDY 34 31 88 E3 30.35F BEDFORD CLOUDY 36 28 73 E6 30.31F WCI 31 BLUE HILL N/A 34 28 79 E7 30.29F WCI 28 NORWOOD CLOUDY 38 30 73 E3 30.33F MARSHFIELD CLOUDY 39 32 75 VRB7 30.33F PLYMOUTH CLOUDY 36 31 82 E7 30.32F WCI 30 TAUNTON CLOUDY 37 30 75 E3 30.31F NEW BEDFORD CLOUDY 37 34 89 E6 30.31F $$ MAZALL-270800- CAPE COD AND THE ISLANDS CITY SKY/WX TMP DP RH WIND PRES REMARKS FALMOUTH CLOUDY 36 36 100 MISG 30.32F FOG HYANNIS CLOUDY 38 36 92 E6 30.31F FOG CHATHAM CLOUDY 40 36 86 E10 30.34F PROVINCETOWN CLOUDY 39 32 76 E7 30.34F NANTUCKET CLOUDY 39 36 89 E15 30.30F FOG WCI 31 MARTHAS VNYRD CLOUDY 38 35 89 E10 30.30F FOG WCI 31 $$ MAZALL-270800- CENTRAL AND WESTERN MASSACHUSETTS CITY SKY/WX TMP DP RH WIND PRES REMARKS WORCESTER CLOUDY 32 27 81 E6 30.27F WCI 26 FITCHBURG CLOUDY 35 30 82 CALM 30.31F ORANGE CLOUDY 32 31 96 SE3 30.28F SPRINGFIELD CLOUDY 36 30 80 CALM 30.29F WESTFIELD CLOUDY 35 30 82 CALM 30.29F NORTH ADAMS CLOUDY 35 29 78 E10G20 30.22F WCI 27 PITTSFIELD CLOUDY 32 28 85 E5 30.20F WCI 27 $$ RIZALL-270800- RHODE ISLAND CITY SKY/WX TMP DP RH WIND PRES REMARKS PROVIDENCE CLOUDY 36 31 82 E5 30.32F NEWPORT CLOUDY 35 35 100 E6 30.29F WCI 30 BLOCK ISLAND MIX PCPN 37 36 96 E10 30.29F WCI 30 SMITHFIELD CLOUDY 34 31 88 E3 30.30F WESTERLY LGT RAIN 37 35 92 E9 30.29F WCI 30 $$ CTZALL-270800- CONNECTICUT CITY SKY/WX TMP DP RH WIND PRES REMARKS BRADLEY INTL DRIZZLE 35 31 85 E5 30.29F WCI 31 HARTFORD CLOUDY 35 33 92 NE3 30.29F FOG BRIDGEPORT CLOUDY 38 35 89 E14 30.26F FOG WCI 30 DANBURY CLOUDY 35 34 96 NE6 30.24F FOG WCI 30 GROTON CLOUDY 37 34 89 E8 30.27F FOG WCI 31 NEW HAVEN CLOUDY 36 35 96 NE5 30.27F FOG CHESTER NOT AVBL MERIDEN CLOUDY 37 33 85 CALM 30.28F FOG WILLIMANTIC CLOUDY 36 34 92 NE3 30.30F FOG OXFORD CLOUDY 34 30 86 E6 30.24F WCI 29 $$ MEZ002-015-021-024-NHZ003-005-008-011-012-014-VTZ005-008-270800- NORTHERN NEW ENGLAND CITY SKY/WX TMP DP RH WIND PRES REMARKS PORTLAND ME CLOUDY 34 29 82 SE5 30.37F WCI 30 BANGOR ME FLURRIES 31 22 69 SW5 30.41F WCI 26 CONCORD NH CLOUDY 33 29 85 CALM 30.32F MANCHESTER NH CLOUDY 36 28 75 E3 30.32F NASHUA NH NOT AVBL PORTSMOUTH NH CLOUDY 36 29 74 SE8 30.33F WCI 30 JAFFREY NH NOT AVBL KEENE NH CLOUDY 34 29 82 S5 30.29F WCI 30 BURLINGTON VT CLOUDY 37 29 72 S10G22 30.14F WCI 30 MT. WASHINGTON FOG 30 30 100 SW51G56 N/A VSB 0 WCI 12 $$ NYZ052-076-270800- EASTERN NEW YORK CITY SKY/WX TMP DP RH WIND PRES REMARKS ALBANY CLOUDY 36 30 79 S15 30.20F WCI 27 NEW YORK CITY DRIZZLE 39 37 92 NE10 30.24F FOG $$ ANZALL-270800- MARINE OBSERVATIONS STATION/POSITION TIME TEMP WIND PRES VSBY WAVE AIR SEA DIR/SP/G HT/PER (UTC) (F) (DEG/KT/KT) (MB) (MI) (FT/S) BOSTON BUOY 0650 39 40 110/ 12/ 14 1026.8F 2/ 6 BUZZARDS BAY 0600 35 60/ 11/ 12 1027.4F NANTUCKET SOUND 0650 38 1026.4F 2/ 5 MASS BAY-STELLWA 0604 38 39 130/ 12/ 14 1026.8F ISLE OF SHOALS 0600 37 130/ 13/ 14 1027.9F S OF BLOCK IS 0655 40 N/A 4/ 6 $$ ......................KEY......................... SKY/WX - SKY CONDITION/PRESENT WEATHER TMP - TEMPERATURE IN FAHRENHEIT DWPT - DEWPOINT IN FAHRENHEIT RH - RELATIVE HUMIDITY IN PERCENT WIND - DIRECTION AND SPEED IN MPH PRES - MEAN SEA LEVEL PRESSURE IN INCHES OF HG WCI - WIND CHILL INDEX VSB - VISIBILITY IN MILES HX - HEAT INDEX TC - TEMPERATURE IN CELSIUS VRB - VARIABLE WIND DIRECTION N/A - NOT AVAILABLE

USA.gov is the U.S. government's official web portal to all federal, state and local government web resources and services.